Вернуться в каталог

COSMOS 2232

АктивенВоенныеHEO
NORAD 22321·PAYLOAD·🇷🇺 Russia

Запущен Jan 26, 1993 с Plesetsk Cosmodrome

Loading…

Ближайшие Пролёты (ближайшие 24 часа)

TLE

СвежийSource: Space-Track

Эпоха: Sep 7, 2026, 09:02 UTC

1 22321U 93006A   26250.37640642  .00000667  00000-0  00000-0 0  9994
2 22321  67.2310 180.1442 5347167 123.9662 298.7235  2.00452764246045

Отслеживайте COSMOS 2232 в реальном времени с AllMySat

Download on the App Store